Location: Albany
(35.0000°S, 118.0000°E)
Time: 07:56:44
(UTC-04:00)

ISS - All Passes

Search period start: 24 August 2016 00:00
Search period end: 03 September 2016 00:00
Orbit: 401 x 403 km, 51.6° (Epoch: 24 August)

Date Brightness Start Highest point End Pass type
(mag) Time Alt. Az. Time Alt. Az. Time Alt. Az.
24 Aug - 07:59:18 10° NNE 08:00:32 12° NE 08:01:47 10° ENE night (unlit)
24 Aug - 09:33:21 10° WNW 09:36:34 52° SW 09:39:50 10° SE night (unlit)
24 Aug - 16:03:37 10° SSW 16:06:45 37° SE 16:09:51 10° ENE visible
24 Aug - 17:40:43 10° W 17:42:57 17° NW 17:45:09 10° N visible
25 Aug - 08:40:12 10° NW 08:43:28 70° NE 08:46:47 10° SE night (unlit)
25 Aug - 10:18:18 10° WSW 10:20:13 14° SSW 10:22:09 10° S night (unlit)
25 Aug - 15:10:52 10° SSW 15:13:30 21° SSE 15:16:06 10° E night (unlit)
25 Aug - 16:46:55 10° WSW 16:50:00 36° NW 16:53:03 10° NNE visible
26 Aug - 07:47:31 10° NNW 07:50:27 30° NE 07:53:24 10° ESE visible
26 Aug - 09:24:09 10° W 09:26:52 23° SSW 09:29:37 10° SSE night (unlit)
26 Aug - 14:18:26 10° S 14:20:08 13° SSE 14:21:49 10° ESE night (unlit)
26 Aug - 15:53:37 10° SW 15:56:57 84° NW 16:00:14 10° NE visible
27 Aug - 06:55:40 10° NNE 06:57:30 14° NE 06:59:21 10° E visible
27 Aug - 08:30:28 10° WNW 08:33:37 43° SW 08:36:50 10° SE visible
27 Aug - 15:00:35 10° SW 15:03:48 44° SE 15:06:58 10° ENE night (unlit)
27 Aug - 16:38:06 10° W 16:39:55 14° NW 16:41:43 10° NNW night (unlit)
28 Aug - 07:37:11 10° NW 07:40:28 86° NE 07:43:47 10° SE visible
28 Aug - 09:15:40 10° SW 09:17:18 13° SSW 09:18:55 10° S night (unlit)
28 Aug - 14:07:46 10° SSW 14:10:33 24° SSE 14:13:18 10° E night (unlit)
28 Aug - 15:44:02 10° WSW 15:46:58 29° NW 15:49:52 10° NNE night (unlit)
29 Aug - 06:44:22 10° NNW 06:47:25 37° NE 06:50:30 10° ESE visible
29 Aug - 08:21:22 10° W 08:23:55 20° SSW 08:26:29 10° SSE visible
29 Aug - 13:15:13 10° S 13:17:11 15° SSE 13:19:10 10° ESE night (unlit)
29 Aug - 14:50:37 10° SW 14:53:56 68° NW 14:57:12 10° NE night (unlit)
30 Aug - 05:52:12 10° N 05:54:26 17° NE 05:56:41 10° E daylight
30 Aug - 07:27:33 10° WNW 07:30:38 36° SW 07:33:44 10° SSE visible
30 Aug - 13:57:31 10° SW 14:00:48 53° SE 14:04:01 10° ENE night (unlit)
30 Aug - 15:35:39 10° WNW 15:36:50 11° NW 15:37:59 10° NNW night (unlit)
31 Aug - 06:34:09 10° NW 06:37:26 77° SW 06:40:46 10° SE visible
31 Aug - 08:13:06 10° SW 08:14:21 12° SSW 08:15:36 10° S visible
31 Aug - 13:04:38 10° SSW 13:07:33 27° SE 13:10:26 10° E night (unlit)
31 Aug - 14:41:09 10° WSW 14:43:53 24° NW 14:46:37 10° N night (unlit)
01 Sep - 05:41:11 10° NNW 05:44:20 45° NE 05:47:31 10° ESE daylight
01 Sep - 07:18:33 10° WSW 07:20:55 18° SSW 07:23:19 10° SSE visible
01 Sep - 12:11:58 10° SSW 12:14:12 16° SSE 12:16:25 10° ESE night (unlit)
01 Sep - 13:47:36 10° WSW 13:50:51 54° NW 13:54:04 10° NNE night (unlit)
02 Sep - 04:48:47 10° N 04:51:20 21° NE 04:53:53 10° ESE daylight
02 Sep - 06:24:37 10° W 06:27:36 31° SW 06:30:36 10° SSE visible
02 Sep - 11:19:55 10° S 11:20:46 11° SSE 11:21:36 10° SE night (unlit)
02 Sep - 12:54:25 10° SW 12:57:44 65° SE 13:01:00 10° NE night (unlit)
